Terug naar catalogus

GLOBALSTAR M003

ActiefCommunicatieLEO
NORAD 25165·PAYLOAD·🇺🇸 United States

Gelanceerd Feb 14, 1998 vanaf Cape Canaveral Space Force Station

Loading…

Volgende Passages (komende 24 uur)

TLE

VersSource: Space-Track

Epoch: Sep 13, 2026, 17:12 UTC

1 25165U 98008D   26256.71734598 -.00000135  00000-0 -48136-3 0  9995
2 25165  51.9814 352.2485 0008711 124.1839  42.3086 12.11994355288217

Volg GLOBALSTAR M003 in realtime met AllMySat

Download on the App Store